Location: Helsinki
(60.1699°N, 24.9384°E)
Time: 18:55:18
(UTC+02:00)

Transit 4A - Pass Details

Date: 03 November 2020
Orbit: 862 x 982 km, 66.8° (Epoch: 29 November)

Event Time Altitude Azimuth Distance (km) Brightness Sun altitude
Rises 14:44:00 0° 207° (SSW) 3,624 13.0 8.0°
Reaches altitude 10° 14:46:34 10° 203° (SSW) 2,695 12.2 7.8°
Maximum altitude 14:52:42 55° 128° (SE) 1,162 8.6 7.3°
Drops below altitude 10° 14:58:57 10° 52° (NE) 2,747 9.8 6.7°
Sets 15:01:35 0° 49° (NE) 3,699 10.3 6.5°
